Weather History for Concordia, KS

Change the Weather History Date:

Wednesday, January 18, 2012

  Actual Average Record
Temperature  
Mean Temperature 25 °F 29 °F  
Max Temperature 37 °F 39 °F 68 °F (1951)
Min Temperature 13 °F 19 °F -13 °F (1940)
Degree Days  
Heating Degree Days 40 36  
Month to date heating degree days 551 662  
Since 1 July heating degree days 2520 2839  
Cooling Degree Days 0 0  
Month to date cooling degree days 0 0  
Year to date cooling degree days 0 0  
Moisture  
Dew Point 15 °F    
Average Humidity 64    
Maximum Humidity 76    
Minimum Humidity 52    
Precipitation  
Precipitation 0.00 in 0.02 in 0.37 in (1980)
Month to date precipitation 0.13 0.28  
Year to date precipitation 0.13 0.28  
Snow  
Snow 0.00 in 0.20 in 1.80 in (1963)
Month to date snowfall 1.1 3.1  
Year to date snowfall 1.1 3.1  
Since 1 July snowfall 2.0 9.6  
Snow Depth 1.00 in    
Sea Level Pressure  
Sea Level Pressure 30.03 in    
Wind  
Wind Speed 16 mph (SSW)    
Max Wind Speed 30 mph    
Max Gust Speed 37 mph    
Visibility 10 miles    
Events      
T = Trace of Precipitation, MM = Missing Value Source: NWS Daily Summary

Daily Weather History Graph

Daily Weather History Graph

Search for Another Location

Airport:

Trip Planner

Search our weather history database for the weather conditions in past years. The results will help you decide how hot, cold, wet, or windy it might be!

Date:

Astronomy

Jan. 18, 2012 Rise Set
Actual Time 7:48 AM CST 5:33 PM CST
Civil Twilight 7:18 AM CST 6:03 PM CST
Nautical Twilight 6:45 AM CST 6:36 PM CST
Astronomical Twilight 6:13 AM CST 7:08 PM CST
Moon 3:19 AM CST (1/18) 1:14 PM CST (1/18)
Length of Visible Light 10h 44m
Length of Day
9h 45m
Waning Crescent, 24% of the Moon is Illuminated
Jan 18
Waning Crescent
Jan 23
New
Jan 30
First Quarter
Feb 7
Full
Feb 14
Last Quarter

Hourly Weather History & Observations

Time (CST) Temp. Windchill Dew Point Humidity Pressure Visibility Wind Dir Wind Speed Gust Speed Precip Events Conditions
12:55 AM 12.9 °F -0.9 °F 6.1 °F 74% 30.33 in 10.0 mi South 11.5 mph - N/A   Clear
1:55 AM 14.0 °F -0.8 °F 7.0 °F 74% 30.30 in 10.0 mi South 13.8 mph - N/A   Clear
2:55 AM 15.1 °F 0.5 °F 7.0 °F 70% 30.27 in 10.0 mi South 13.8 mph - N/A   Clear
3:55 AM 15.1 °F -0.6 °F 7.0 °F 70% 30.21 in 10.0 mi South 16.1 mph - N/A   Clear
4:55 AM 14.0 °F 0.5 °F 7.0 °F 74% 30.20 in 10.0 mi SSW 11.5 mph - N/A   Clear
5:55 AM 15.1 °F -1.1 °F 7.0 °F 70% 30.18 in 10.0 mi South 17.3 mph 24.2 mph N/A   Clear
6:55 AM 17.1 °F 0.1 °F 8.1 °F 68% 30.16 in 10.0 mi SSW 20.7 mph 27.6 mph N/A   Clear
7:55 AM 16.0 °F -2.1 °F 9.0 °F 74% 30.14 in 10.0 mi SSW 23.0 mph 27.6 mph N/A   Clear
8:55 AM 19.4 °F 1.1 °F 10.4 °F 68% 30.04 in 10.0 mi SSW 27.6 mph 36.8 mph N/A   Clear
9:55 AM 21.0 °F 3.3 °F 12.9 °F 71% 30.09 in 10.0 mi SSW 27.6 mph 36.8 mph N/A   Mostly Cloudy
10:55 AM 27.0 °F 13.2 °F 15.1 °F 61% 30.09 in 10.0 mi SW 20.7 mph 29.9 mph N/A   Clear
11:55 AM 30.9 °F 18.7 °F 17.1 °F 57% 30.07 in 10.0 mi WSW 19.6 mph 26.5 mph N/A   Mostly Cloudy
12:55 PM 32.0 °F 20.1 °F 19.0 °F 59% 30.01 in 10.0 mi SW 19.6 mph 25.3 mph N/A   Mostly Cloudy
1:55 PM 35.6 °F 25.5 °F 19.4 °F 52% 29.91 in 10.0 mi SW 17.3 mph 25.3 mph N/A   Clear
2:55 PM 36.0 °F 27.1 °F 21.9 °F 57% 29.93 in 10.0 mi SSW 13.8 mph - N/A   Clear
3:55 PM 36.0 °F 28.0 °F 21.0 °F 55% 29.92 in 10.0 mi SSW 11.5 mph - N/A   Clear
4:55 PM 36.0 °F 30.3 °F 19.9 °F 52% 29.90 in 10.0 mi SSW 6.9 mph - N/A   Clear
5:55 PM 35.6 °F 27.5 °F 19.4 °F 52% 29.84 in 10.0 mi SSW 11.5 mph - N/A   Clear
6:55 PM 35.1 °F 24.8 °F 19.9 °F 54% 29.88 in 10.0 mi SSW 17.3 mph - N/A   Clear
7:55 PM 33.1 °F 22.6 °F 19.9 °F 59% 29.87 in 10.0 mi SSW 16.1 mph - N/A   Clear
8:55 PM 33.1 °F 22.6 °F 19.9 °F 59% 29.86 in 10.0 mi SSW 16.1 mph - N/A   Clear
9:55 PM 34.0 °F 23.4 °F 21.0 °F 59% 29.84 in 10.0 mi SSW 17.3 mph - N/A   Clear
10:28 PM 33.8 °F 24.3 °F 21.2 °F 60% 29.84 in 10.0 mi NNW 13.8 mph 20.7 mph N/A   Clear
10:55 PM 33.1 °F 28.7 °F 21.9 °F 64% 29.88 in 10.0 mi WNW 4.6 mph - N/A   Clear
11:55 PM 28.0 °F 17.5 °F 18.0 °F 66% 29.90 in 10.0 mi NNE 12.7 mph - N/A   Clear